Regional Weather Roundup
Issued by NWS

Home | Current Version | Previous Version | Graphics & Text | Print | Product List | Glossary On
Versions: 1 2 3 4 5 6 7 8 9 10 11 12 13 14 15 16 17 18 19 20 21 22 23 24 25 26 27 28 29 30 31 32 33 34 35 36 37 38 39 40 41 42 43 44 45 46 47 48 49 50
947
ASUS45 KSLC 251610
RWRUT

UTAH REGIONAL WEATHER ROUNDUP
NATIONAL WEATHER SERVICE SALT LAKE CITY UT
1000 AM MDT SAT MAR 25 2017

UTZ001>011-023>025-251700-

NORTHERN UTAH

CITY           SKY/WX    TMP DP  RH WIND       PRES   REMARKS
BRIGHAM CITY     N/A     42  38  86 NW14      30.04F
HILL AFB       LGT RAIN  41  40  98 N8        30.02S
LOGAN          LGT RAIN  41  37  86 N14       30.05S
OGDEN          LGT RAIN  41  40  96 NW14      30.02S
SALT LAKE CITY LGT RAIN  45  43  93 NW12      30.02S
WENDOVER       LGT RAIN  43  38  82 W6        30.07S
HEBER CITY     CLOUDY    45  34  65 SW20      29.98S

$$

UTZ011>015-024>027-251700-

CENTRAL/NORTHEAST UTAH

CITY           SKY/WX    TMP DP  RH WIND       PRES   REMARKS
PROVO AIRPORT  LGT RAIN  47  41  80 NW6       30.04R
MOAB/CANYONLAN PTSUNNY   52  30  43 SE8       30.00F
DELTA          CLOUDY    48  36  61 N5        29.99F
PRICE          CLOUDY    48  32  53 SE6       30.02F
ROOSEVELT      MOSUNNY   45  34  65 CALM      30.05S
VERNAL         SUNNY     47  32  56 SE3       30.02F

$$

UTZ013>016-019>022-027-251700-

SOUTHERN UTAH

CITY           SKY/WX    TMP DP  RH WIND       PRES   REMARKS
BRYCE CANYON   CLOUDY    39  26  59 SE9       30.06F WCI  33
CEDAR CITY     CLOUDY    48  29  47 S18G28    29.98S
MILFORD        CLOUDY    50  30  46 SW8       29.97S
ST GEORGE      CLOUDY    53  35  50 NW6       29.99S
HANKSVILLE     CLOUDY    45  32  61 CALM      30.01F
BLANDING       CLOUDY    46  24  40 SE7       30.16F

$$

REGIONAL REPORTS     COLORADO/ARIZONA

CITY           SKY/WX    TMP DP  RH WIND       PRES   REMARKS
CRAIG, CO      CLOUDY    47  26  44 E13       30.05F
GRAND JUNCTION SUNNY     52  29  41 SE14      30.04F
RIFLE, CO      SUNNY     44  28  53 NW3       30.07F
MONTROSE, CO   SUNNY     48  25  40 CALM      30.09F
CORTEZ, CO     SUNNY     48  27  44 CALM      30.10F
COLORADO CITY    N/A     48  34  57 E6        30.06S
PAGE, AZ       CLOUDY    51  36  56 CALM      30.00F
GRAND CANYON   CLOUDY    42  32  67 S7        30.10R
KINGMAN, AZ    MOSUNNY   59  21  23 S16       30.01S
FLAGSTAFF, AZ  CLOUDY    41  32  70 SW8       30.11F

$$

REGIONAL REPORTS    NEVADA/IDAHO/WYOMING

CITY           SKY/WX    TMP DP  RH WIND       PRES   REMARKS
LAS VEGAS, NV  MOSUNNY   61  35  37 NW18G24   29.97R
ELY, NY        SNOW      32  32 100 N10       30.05R WCI  24
ELKO, NV       CLOUDY    41  34  76 W3        30.06S
POCATELLO, ID  CLOUDY    42  36  79 SW16      30.06R
BURLEY, ID     CLOUDY    42  34  73 W15       30.05F
FORT BRIDGER,  CLOUDY    37  32  81 CALM      30.04F
EVANSTON, WY   CLOUDY    39  28  64 CALM      30.01F
ROCK SPRINGS,  CLOUDY    41  31  67 CALM      30.02S
KEMMERER, WY     N/A     34  28  80 CALM      30.03S

$$




USA.gov is the U.S. government's official web portal to all federal, state and local government web resources and services.